Location: Newark
(40.7066°N, 111.8219°W)
Time: 15:38:21
(UTC+00:00)

deb Explorer IX - Pass Details

Date: 22 November 2019
Orbit: 545 x 1105 km, 38.8° (Epoch: 05 December)

Event Time Altitude Azimuth Distance (km) Brightness Sun altitude
Exits shadow 11:31:36 28° 145° (SE) 1,345 ? -32.0°
Drops below altitude 10° 11:34:04 10° 128° (SE) 2,137 ? -31.5°
Sets 11:36:20 0° 122° (ESE) 2,973 ? -31.1°
